Home   Weather   Tabatinga   Past weeks

Flag for Brazil Past Weather in Tabatinga, Amazonas, Brazil — Yesterday and Last 2 Weeks

Now
79 °F

Sunny.


Feels Like: 82 °F
Forecast: 75 / 87 °F
Wind: No wind

Location: Leticia / Vasquez Cobo

Current Time: Dec 9, 2016 at 8:35:57 am

Latest Report: Dec 9, 2016 at 8:00 am


Visibility: 10 mi

Pressure: 29.91 "Hg

Humidity: 89%

Dew Point: 75 °F

Location of TabatingaLocation

Past Weather in Tabatinga — Graph

°F

Tabatinga Temperature Yesterday

Maximum temperature yesterday: 90 °F (at 1:00 pm)
Minimum temperature yesterday: 75 °F (at 1:00 am)
Average temperature yesterday: 81 °F

High & Low Weather Summary for the Past Weeks

 TemperatureHumidityPressure
High93 °F (Nov 24, 3:00 pm)100% (Nov 26, 2:00 am)29.98 "Hg (Nov 26, 2:00 am)
Low73 °F (Nov 27, 6:00 am)52% (Dec 6, 4:00 pm)28.82 "Hg (Dec 4, 8:00 pm)
Average81 °F86%29.82 "Hg
* Reported Nov 24 7:00 am — Dec 9 7:00 am, Tabatinga, Weather by CustomWeather, © 2016

Note: Actual official high and low records may vary slightly from our data, if they occured in-between our weather recording intervals... More about our weather records

Advertising

Tabatinga Weather History for the Previous 24 Hours

Scroll right to see more
 ConditionsComfort  
Time TempWeatherWind HumidityBarometerVisibility
7:00 am
Fri, Dec 9
77 °FSunny.No wind94%29.89 "Hg10 mi
6:00 am75 °FPartly sunny.3 mph100%29.86 "HgN/A
5:00 am77 °FPassing clouds.No wind94%29.82 "HgN/A
4:00 am77 °FPassing clouds.No wind94%29.80 "HgN/A
3:00 am75 °FPartly cloudy.No wind100%29.79 "HgN/A
2:00 am77 °FPartly cloudy.No wind94%29.78 "HgN/A
10:00 pm
Thu, Dec 8
77 °FPartly cloudy.No wind94%29.83 "HgN/A
9:00 pm77 °FLight rain. Partly cloudy.No wind94%29.81 "Hg3 mi
8:00 pm77 °FRain. Partly cloudy.No wind94%29.78 "Hg4 mi
7:00 pm77 °FThunderstorms. Partly cloudy.3 mph89%29.76 "Hg4 mi
6:00 pm81 °FThunderstorms. Passing clouds.5 mph84%29.71 "Hg5 mi
5:00 pm88 °FThunderstorms. Scattered clouds.3 mph75%29.71 "HgN/A
4:00 pm90 °FScattered clouds.No wind67%29.69 "HgN/A
3:00 pm90 °FPartly sunny.No wind67%29.72 "HgN/A
2:00 pm90 °FScattered clouds.5 mph71%29.75 "HgN/A
1:00 pm90 °FScattered clouds.3 mph67%29.80 "HgN/A
12:00 pm88 °FBroken clouds.3 mph70%29.85 "HgN/A
11:00 am86 °FScattered clouds.No wind75%29.89 "HgN/A
10:00 am82 °FBroken clouds.3 mph79%29.91 "HgN/A
9:00 am81 °FBroken clouds.2 mph89%29.92 "HgN/A
8:00 am77 °FBroken clouds.3 mph94%29.91 "HgN/A
Weather by CustomWeather, © 2016

See weather overviewHow to use our weather pages